This is the latest recevied weather packets stored in our database for station/object K9ABJ. If no packets are shown the sender has not sent any weather packets the latest 10 day(s).
| Time | Temp. | Humidity | Pressure | Rain* | Wind** | Luminosity | Snow |
|---|---|---|---|---|---|---|---|
| 1787919968 | 18.33° C | 89% | 1021 hPa | 0 mm | - | 73 W/m² | - |
| 1787919667 | 18.33° C | 89% | 1021 hPa | 0 mm | - | 70 W/m² | - |
| 1787919362 | 17.78° C | 91% | 1021.1 hPa | 0 mm | - | 66 W/m² | - |
| 1787919058 | 17.22° C | 92% | 1021 hPa | 0 mm | - | 61 W/m² | - |
| 1787918752 | 16.67° C | 93% | 1020.9 hPa | 0 mm | - | 54 W/m² | - |
| 1787918452 | 16.67° C | 94% | 1021 hPa | 0 mm | - | 49 W/m² | - |
| 1787918150 | 16.67° C | 94% | 1020.8 hPa | 0 mm | - | 45 W/m² | - |
| 1787917845 | 15.56° C | 94% | 1020.8 hPa | 0 mm | - | 39 W/m² | - |
| 1787917542 | 15.56° C | 95% | 1020.7 hPa | 0 mm | - | 33 W/m² | - |
| 1787917238 | 15.56° C | 95% | 1020.6 hPa | 0 mm | - | 27 W/m² | - |
| 1787916937 | 15° C | 95% | 1020.7 hPa | 0 mm | - | 23 W/m² | - |
| 1787916637 | 15° C | 95% | 1020.5 hPa | 0 mm | - | 18 W/m² | - |
| 1787916337 | 14.44° C | 95% | 1020.4 hPa | 0 mm | - | 13 W/m² | - |
| 1787916033 | 14.44° C | 95% | 1020.4 hPa | 0 mm | - | 10 W/m² | - |
| 1787915727 | 14.44° C | 95% | 1020.1 hPa | 0 mm | - | 5 W/m² | - |
| 1787915423 | 14.44° C | 95% | 1020.1 hPa | 0 mm | - | 2 W/m² | - |
| 1787915123 | 14.44° C | 95% | 1020.1 hPa | 0 mm | - | 1 W/m² | - |
| 1787914823 | 14.44° C | 95% | 1020.2 hPa | 0 mm | - | 0 W/m² | - |
| 1787914521 | 14.44° C | 95% | 1020 hPa | 0 mm | - | 0 W/m² | - |
| 1787914216 | 14.44° C | 95% | 1019.9 hPa | 0 mm | - | 0 W/m² | - |
| 1787913917 | 14.44° C | 95% | 1019.8 hPa | 0 mm | - | 0 W/m² | - |
| 1787913616 | 13.89° C | 95% | 1019.8 hPa | 0 mm | - | 0 W/m² | - |
| 1787913316 | 13.89° C | 95% | 1019.9 hPa | 0 mm | - | 0 W/m² | - |
| 1787913016 | 14.44° C | 95% | 1019.8 hPa | 0 mm | - | 0 W/m² | - |
| 1787912714 | 13.89° C | 95% | 1019.7 hPa | 0 mm | - | 0 W/m² | - |
* Rain latest hour (hover to see other rain measurements)
** Current wind speed in m/s (hover to see current wind gust speed)